{"data":{"norad_id":63906,"intl_designator":"2025-095S","name":"STARLINK-33770","alt_names":[],"object_type":"PAYLOAD","status":"ACTIVE","operator":null,"country":"US","launch_date":"2025-05-10","launch_site_code":"AFETR","launch_vehicle":null,"mission":null,"orbit_class":"UNKNOWN","rcs_meters":null,"size_class":null,"mass_kg":null,"dimensions":null,"purposes":["comms"],"wikipedia_slug":null,"has_3d_model":false,"image_url":null,"decayed_at":null,"tle_current":{"epoch":"2026-09-20T10:17:40.111872Z","epoch_age_seconds":153230,"freshness":"FRESH","line1":"1 63906U 25095S   26263.42893648  .00010733  00000+0  39906-3 0  9991","line2":"2 63906  43.0036 156.1746 0001580 283.4078  76.6597 15.27574644 77568","mean_motion":15.27574644,"eccentricity":0.000158,"inclination_deg":43.0036,"raan_deg":156.1746,"arg_perigee_deg":283.4078,"mean_anomaly_deg":76.6597,"bstar":0.00039906,"rev_number":7756,"period_min":94.267079232823,"perigee_km":481.98106394017,"apogee_km":484.14920381448,"semimajor_km":6861.2021338773,"source":"CELESTRAK","updated_at":"2026-09-21T09:00:35.146204Z"}}}